| time (UTC) | temp F | wind direction | speed knots | gust knots | rain 1hr in | rain 24hr in | rain mn in | humidity % | barometer mb |
| 20260505053512 | 69 | 145 | 0.9 | 2.6 | 0.00 | 0.00 | 0.00 | 82 | 1014.8 |
| 20260505053023 | 69 | 115 | 0.9 | 3.5 | 0.00 | 0.00 | 0.00 | 82 | 1015.0 |
| 20260505052503 | 69 | 106 | 0.9 | 3.5 | 0.00 | 0.00 | 0.00 | 82 | 1015.0 |
| 20260505052004 | 69 | 102 | 0.9 | 4.3 | 0.00 | 0.00 | 0.00 | 81 | 1015.0 |
| 20260505051517 | 69 | 136 | 1.7 | 4.3 | 0.00 | 0.00 | 0.00 | 81 | 1015.1 |
| 20260505051005 | 69 | 136 | 0.9 | 5.2 | 0.00 | 0.00 | 0.00 | 81 | 1015.0 |
| 20260505050503 | 69 | 131 | 1.7 | 5.2 | 0.00 | 0.00 | 0.00 | 81 | 1015.0 |
| 20260505041510 | 70 | 166 | 1.7 | 3.5 | 0.00 | 0.00 | 0.00 | 80 | 1015.3 |
| 20260505041006 | 70 | 166 | 0.9 | 4.3 | 0.00 | 0.00 | 0.00 | 78 | 1015.3 |
| 20260505040505 | 70 | 147 | 0.9 | 4.3 | 0.00 | 0.00 | 0.00 | 78 | 1015.2 |
| 20260505040014 | 70 | 152 | 0.9 | 3.5 | 0.00 | 0.00 | 0.00 | 78 | 1015.3 |
| 20260505035505 | 71 | 28 | 1.7 | 4.3 | 0.00 | 0.00 | 0.00 | 78 | 1015.2 |
| 20260505035007 | 71 | 139 | 0.9 | 5.2 | 0.00 | 0.00 | 0.00 | 77 | 1015.2 |
| 20260505034519 | 71 | 189 | 1.7 | 6.1 | 0.00 | 0.00 | 0.00 | 77 | 1015.3 |
| 20260505034004 | 71 | 67 | 0.9 | 6.1 | 0.00 | 0.00 | 0.00 | 77 | 1015.3 |
| 20260505033505 | 71 | 158 | 1.7 | 6.1 | 0.00 | 0.00 | 0.00 | 76 | 1015.5 |
| 20260505033025 | 71 | 144 | 1.7 | 6.1 | 0.00 | 0.00 | 0.00 | 76 | 1015.4 |
| 20260505032513 | 72 | 168 | 1.7 | 6.1 | 0.00 | 0.00 | 0.00 | 76 | 1015.4 |
| 20260505032008 | 72 | 184 | 1.7 | 6.1 | 0.00 | 0.00 | 0.00 | 75 | 1015.3 |
| 20260505031531 | 72 | 149 | 0.9 | 5.2 | 0.00 | 0.00 | 0.00 | 76 | 1015.4 |
| 20260505031008 | 72 | 136 | 0.9 | 3.5 | 0.00 | 0.00 | 0.00 | 75 | 1015.6 |
| 20260505030504 | 72 | 166 | 0.0 | 7.0 | 0.00 | 0.00 | 0.00 | 75 | 1015.6 |
| 20260505030010 | 72 | 153 | 1.7 | 7.0 | 0.00 | 0.00 | 0.00 | 75 | 1015.6 |
| 20260505025511 | 72 | 146 | 0.9 | 3.5 | 0.00 | 0.00 | 0.00 | 76 | 1015.6 |
| 20260505025006 | 72 | 97 | 0.0 | 6.1 | 0.00 | 0.00 | 0.00 | 75 | 1015.4 |
| 20260505024515 | 72 | 177 | 0.9 | 6.1 | 0.00 | 0.00 | 0.00 | 74 | 1015.4 |
| 20260505024006 | 73 | 183 | 1.7 | 6.1 | 0.00 | 0.00 | 0.00 | 74 | 1015.3 |
| 20260505023504 | 73 | 229 | 2.6 | 6.1 | 0.00 | 0.00 | 0.00 | 74 | 1015.2 |
| 20260505023021 | 73 | 81 | 2.6 | 6.1 | 0.00 | 0.00 | 0.00 | 74 | 1015.1 |
| 20260505022507 | 73 | 179 | 1.7 | 9.6 | 0.00 | 0.00 | 0.00 | 73 | 1015.1 |
| 20260505022010 | 73 | 239 | 1.7 | 9.6 | 0.00 | 0.00 | 0.00 | 73 | 1015.1 |
| 20260505021522 | 73 | 174 | 2.6 | 8.7 | 0.00 | 0.00 | 0.00 | 73 | 1015.0 |
| 20260505021010 | 73 | 170 | 2.6 | 8.7 | 0.00 | 0.00 | 0.00 | 72 | 1014.9 |
| 20260505020509 | 74 | 138 | 1.7 | 7.8 | 0.00 | 0.00 | 0.00 | 72 | 1014.9 |
| 20260505020026 | 74 | 108 | 3.5 | 8.7 | 0.00 | 0.00 | 0.00 | 71 | 1014.9 |
| 20260505015504 | 74 | 166 | 4.3 | 8.7 | 0.00 | 0.00 | 0.00 | 71 | 1014.9 |
| 20260505015005 | 74 | 162 | 1.7 | 7.0 | 0.00 | 0.00 | 0.00 | 71 | 1014.9 |
| 20260505014516 | 74 | 166 | 2.6 | 7.0 | 0.00 | 0.00 | 0.00 | 71 | 1014.8 |
| 20260505014006 | 74 | 188 | 1.7 | 6.1 | 0.00 | 0.00 | 0.00 | 71 | 1014.8 |
| 20260505013506 | 75 | 116 | 2.6 | 6.1 | 0.00 | 0.00 | 0.00 | 71 | 1014.7 |
| 20260505013017 | 75 | 190 | 1.7 | 7.8 | 0.00 | 0.00 | 0.00 | 70 | 1014.7 |
| 20260505012505 | 75 | 210 | 2.6 | 7.8 | 0.00 | 0.00 | 0.00 | 70 | 1014.5 |
| 20260505012008 | 75 | 188 | 2.6 | 7.8 | 0.00 | 0.00 | 0.00 | 70 | 1014.5 |
| 20260505011523 | 75 | 135 | 1.7 | 8.7 | 0.00 | 0.00 | 0.00 | 69 | 1014.6 |
| 20260505011008 | 75 | 213 | 3.5 | 8.7 | 0.00 | 0.00 | 0.00 | 69 | 1014.5 |
| 20260505010508 | 76 | 204 | 2.6 | 7.0 | 0.00 | 0.00 | 0.00 | 69 | 1014.1 |
| 20260505010030 | 76 | 284 | 2.6 | 7.0 | 0.00 | 0.00 | 0.00 | 69 | 1014.1 |
| 20260505005508 | 76 | 127 | 1.7 | 8.7 | 0.00 | 0.00 | 0.00 | 68 | 1014.1 |
| 20260505005009 | 76 | 135 | 3.5 | 8.7 | 0.00 | 0.00 | 0.00 | 68 | 1014.0 |
| 20260505004508 | 76 | 179 | 1.7 | 7.8 | 0.00 | 0.00 | 0.00 | 67 | 1014.1 |
| 20260505004004 | 76 | 119 | 2.6 | 7.8 | 0.00 | 0.00 | 0.00 | 68 | 1014.1 |
| 20260505003504 | 77 | 130 | 1.7 | 7.8 | 0.00 | 0.00 | 0.00 | 67 | 1013.9 |
| 20260505003015 | 77 | 135 | 2.6 | 7.8 | 0.00 | 0.00 | 0.00 | 66 | 1013.9 |
| 20260505002504 | 77 | 168 | 3.5 | 7.0 | 0.00 | 0.00 | 0.00 | 66 | 1013.9 |
| 20260505002007 | 77 | 196 | 1.7 | 7.0 | 0.00 | 0.00 | 0.00 | 65 | 1013.9 |
| 20260505001520 | 78 | 144 | 2.6 | 7.0 | 0.00 | 0.00 | 0.00 | 65 | 1013.8 |
| 20260505001007 | 78 | 154 | 2.6 | 6.1 | 0.00 | 0.00 | 0.00 | 65 | 1013.6 |
| 20260505000504 | 78 | 208 | 1.7 | 7.0 | 0.00 | 0.00 | 0.00 | 64 | 1013.4 |
| 20260505000023 | 78 | 190 | 1.7 | 7.0 | 0.00 | 0.00 | 0.00 | 63 | 1013.3 |
| 20260504235510 | 78 | 182 | 2.6 | 6.1 | 0.00 | 0.00 | 0.00 | 63 | 1013.1 |
| 20260504235011 | 79 | 169 | 1.7 | 10.4 | 0.00 | 0.00 | 0.00 | 63 | 1013.0 |
| 20260504234528 | 79 | 192 | 2.6 | 10.4 | 0.00 | 0.00 | 0.00 | 62 | 1012.9 |
| 20260504234009 | 79 | 185 | 4.3 | 10.4 | 0.00 | 0.00 | 0.00 | 61 | 1013.0 |
| 20260504233505 | 79 | 177 | 3.5 | 10.4 | 0.00 | 0.00 | 0.00 | 62 | 1012.9 |
| 20260504233014 | 79 | 209 | 2.6 | 7.0 | 0.00 | 0.00 | 0.00 | 60 | 1012.7 |
| 20260504232505 | 79 | 156 | 3.5 | 8.7 | 0.00 | 0.00 | 0.00 | 60 | 1012.8 |
| 20260504232007 | 80 | 216 | 2.6 | 8.7 | 0.00 | 0.00 | 0.00 | 60 | 1012.8 |
| 20260504231520 | 80 | 156 | 2.6 | 7.0 | 0.00 | 0.00 | 0.00 | 59 | 1012.6 |
| 20260504231006 | 80 | 95 | 3.5 | 7.0 | 0.00 | 0.00 | 0.00 | 59 | 1012.6 |
| 20260504230508 | 80 | 102 | 2.6 | 7.0 | 0.00 | 0.00 | 0.00 | 61 | 1012.6 |
| 20260504230022 | 80 | 160 | 2.6 | 7.0 | 0.00 | 0.00 | 0.00 | 59 | 1012.6 |
| 20260504225510 | 80 | 73 | 2.6 | 7.0 | 0.00 | 0.00 | 0.00 | 58 | 1012.6 |
| 20260504225009 | 81 | 102 | 1.7 | 4.3 | 0.00 | 0.00 | 0.00 | 55 | 1012.5 |
| 20260504224531 | 81 | 118 | 1.7 | 7.8 | 0.00 | 0.00 | 0.00 | 55 | 1012.7 |
| 20260504224009 | 81 | 150 | 1.7 | 7.8 | 0.00 | 0.00 | 0.00 | 55 | 1012.7 |
| 20260504223511 | 82 | 206 | 1.7 | 7.8 | 0.00 | 0.00 | 0.00 | 56 | 1012.8 |
| 20260504223030 | 82 | 177 | 2.6 | 7.8 | 0.00 | 0.00 | 0.00 | 55 | 1012.9 |
| 20260504222505 | 82 | 141 | 3.5 | 10.4 | 0.00 | 0.00 | 0.00 | 54 | 1013.0 |
| 20260504222006 | 82 | 214 | 4.3 | 10.4 | 0.00 | 0.00 | 0.00 | 54 | 1012.9 |
| 20260504221515 | 82 | 240 | 1.7 | 6.1 | 0.00 | 0.00 | 0.00 | 52 | 1012.9 |
| 20260504221005 | 82 | 116 | 1.7 | 6.1 | 0.00 | 0.00 | 0.00 | 51 | 1012.9 |
| 20260504220507 | 82 | 56 | 0.9 | 6.1 | 0.00 | 0.00 | 0.00 | 53 | 1012.9 |
| 20260504220022 | 82 | 223 | 1.7 | 5.2 | 0.00 | 0.00 | 0.00 | 52 | 1012.9 |
| 20260504215512 | 82 | 98 | 1.7 | 5.2 | 0.00 | 0.00 | 0.00 | 54 | 1013.0 |
| 20260504215010 | 82 | 78 | 0.9 | 3.5 | 0.00 | 0.00 | 0.00 | 54 | 1012.8 |
| 20260504214537 | 82 | 75 | 1.7 | 7.0 | 0.00 | 0.00 | 0.00 | 52 | 1012.7 |
| 20260504214014 | 83 | 146 | 3.5 | 9.6 | 0.00 | 0.00 | 0.00 | 51 | 1012.8 |
| 20260504213510 | 83 | 175 | 3.5 | 9.6 | 0.00 | 0.00 | 0.00 | 52 | 1012.9 |
| 20260504213028 | 83 | 156 | 2.6 | 5.2 | 0.00 | 0.00 | 0.00 | 52 | 1012.8 |
| 20260504212512 | 83 | 157 | 1.7 | 5.2 | 0.00 | 0.00 | 0.00 | 49 | 1012.8 |
| 20260504212013 | 83 | 121 | 2.6 | 5.2 | 0.00 | 0.00 | 0.00 | 49 | 1012.9 |
| 20260504211513 | 83 | 151 | 2.6 | 7.0 | 0.00 | 0.00 | 0.00 | 53 | 1013.1 |
| 20260504211006 | 83 | 145 | 2.6 | 7.0 | 0.00 | 0.00 | 0.00 | 50 | 1013.1 |
| 20260504210512 | 84 | 136 | 3.5 | 6.1 | 0.00 | 0.00 | 0.00 | 53 | 1013.0 |
| 20260504210022 | 83 | 60 | 2.6 | 7.0 | 0.00 | 0.00 | 0.00 | 51 | 1013.0 |
| 20260504205507 | 84 | 154 | 1.7 | 7.0 | 0.00 | 0.00 | 0.00 | 52 | 1013.1 |
| 20260504205007 | 83 | 221 | 1.7 | 7.0 | 0.00 | 0.00 | 0.00 | 50 | 1012.9 |
| 20260504204522 | 83 | 146 | 1.7 | 7.8 | 0.00 | 0.00 | 0.00 | 51 | 1013.1 |
| 20260504204010 | 84 | 201 | 2.6 | 7.8 | 0.00 | 0.00 | 0.00 | 51 | 1013.1 |
| 20260504203509 | 84 | 181 | 4.3 | 9.6 | 0.00 | 0.00 | 0.00 | 51 | 1013.2 |
| 20260504203030 | 84 | 161 | 2.6 | 9.6 | 0.00 | 0.00 | 0.00 | 51 | 1013.2 |
| 20260504202508 | 84 | 168 | 1.7 | 7.0 | 0.00 | 0.00 | 0.00 | 48 | 1013.2 |
| 20260504202013 | 84 | 154 | 1.7 | 7.0 | 0.00 | 0.00 | 0.00 | 47 | 1013.2 |
| 20260504201526 | 85 | 110 | 2.6 | 7.8 | 0.00 | 0.00 | 0.00 | 46 | 1013.3 |
| 20260504201013 | 85 | 168 | 2.6 | 7.0 | 0.00 | 0.00 | 0.00 | 46 | 1013.4 |
| 20260504200507 | 85 | 111 | 2.6 | 7.8 | 0.00 | 0.00 | 0.00 | 48 | 1013.4 |
| 20260504200020 | 84 | 262 | 3.5 | 7.8 | 0.00 | 0.00 | 0.00 | 47 | 1013.4 |
| 20260504195507 | 84 | 126 | 0.9 | 6.1 | 0.00 | 0.00 | 0.00 | 46 | 1013.6 |
| 20260504195007 | 84 | 138 | 1.7 | 7.0 | 0.00 | 0.00 | 0.00 | 47 | 1013.6 |
| 20260504194523 | 84 | 178 | 3.5 | 7.0 | 0.00 | 0.00 | 0.00 | 49 | 1013.6 |
| 20260504194010 | 84 | 215 | 2.6 | 7.0 | 0.00 | 0.00 | 0.00 | 49 | 1013.7 |
| 20260504193514 | 83 | 167 | 3.5 | 8.7 | 0.00 | 0.00 | 0.00 | 50 | 1013.9 |
| 20260504193026 | 83 | 123 | 2.6 | 8.7 | 0.00 | 0.00 | 0.00 | 50 | 1013.9 |
| 20260504192514 | 84 | 174 | 3.5 | 8.7 | 0.00 | 0.00 | 0.00 | 49 | 1013.8 |
| 20260504192010 | 84 | 189 | 2.6 | 8.7 | 0.00 | 0.00 | 0.00 | 49 | 1013.8 |
| 20260504191526 | 85 | 164 | 3.5 | 7.8 | 0.00 | 0.00 | 0.00 | 51 | 1014.0 |
| 20260504191013 | 84 | 111 | 1.7 | 8.7 | 0.00 | 0.00 | 0.00 | 51 | 1014.0 |
| 20260504190511 | 84 | 197 | 3.5 | 8.7 | 0.00 | 0.00 | 0.00 | 51 | 1014.1 |
| 20260504190028 | 84 | 114 | 1.7 | 6.1 | 0.00 | 0.00 | 0.00 | 52 | 1014.2 |
| 20260504185510 | 84 | 134 | 1.7 | 10.4 | 0.00 | 0.00 | 0.00 | 49 | 1014.4 |
| 20260504185005 | 84 | 123 | 4.3 | 11.3 | 0.00 | 0.00 | 0.00 | 50 | 1014.5 |
| 20260504184527 | 84 | 169 | 3.5 | 11.3 | 0.00 | 0.00 | 0.00 | 48 | 1014.4 |
| 20260504184009 | 84 | 145 | 3.5 | 7.0 | 0.00 | 0.00 | 0.00 | 49 | 1014.6 |
| 20260504183514 | 84 | 83 | 2.6 | 7.0 | 0.00 | 0.00 | 0.00 | 51 | 1014.7 |
| 20260504183031 | 84 | 112 | 1.7 | 7.8 | 0.00 | 0.00 | 0.00 | 50 | 1014.7 |
| 20260504182508 | 83 | 174 | 3.5 | 7.8 | 0.00 | 0.00 | 0.00 | 50 | 1014.8 |
| 20260504182009 | 83 | 218 | 1.7 | 8.7 | 0.00 | 0.00 | 0.00 | 57 | 1015.0 |
| 20260504181526 | 82 | 97 | 2.6 | 8.7 | 0.00 | 0.00 | 0.00 | 51 | 1015.2 |
| 20260504181010 | 83 | 100 | 1.7 | 7.8 | 0.00 | 0.00 | 0.00 | 51 | 1015.2 |
| 20260504180507 | 83 | 43 | 2.6 | 9.6 | 0.00 | 0.00 | 0.00 | 50 | 1015.2 |
| 20260504180027 | 82 | 84 | 6.1 | 9.6 | 0.00 | 0.00 | 0.00 | 50 | 1015.2 |
| 20260504175508 | 82 | 195 | 4.3 | 8.7 | 0.00 | 0.00 | 0.00 | 50 | 1015.2 |
| 20260504175011 | 83 | 88 | 4.3 | 8.7 | 0.00 | 0.00 | 0.00 | 51 | 1015.4 |
| 20260504174528 | 82 | 177 | 3.5 | 8.7 | 0.00 | 0.01 | 0.00 | 53 | 1015.4 |
| 20260504174010 | 82 | 118 | 4.3 | 10.4 | 0.00 | 0.01 | 0.00 | 51 | 1015.5 |
| 20260504173512 | 82 | 133 | 5.2 | 12.2 | 0.00 | 0.01 | 0.00 | 48 | 1015.5 |
| 20260504173021 | 82 | 170 | 3.5 | 12.2 | 0.00 | 0.01 | 0.00 | 51 | 1015.6 |
| 20260504172512 | 82 | 60 | 6.1 | 12.2 | 0.00 | 0.01 | 0.00 | 50 | 1015.6 |
| 20260504172011 | 82 | 108 | 3.5 | 8.7 | 0.00 | 0.01 | 0.00 | 50 | 1015.7 |
| 20260504171525 | 82 | 95 | 3.5 | 7.8 | 0.00 | 0.01 | 0.00 | 54 | 1015.7 |
| 20260504171014 | 82 | 182 | 3.5 | 10.4 | 0.00 | 0.01 | 0.00 | 54 | 1015.8 |
| 20260504170508 | 81 | 135 | 6.1 | 10.4 | 0.00 | 0.01 | 0.00 | 50 | 1015.8 |
| 20260504151007 | 78 | 174 | 4.3 | 8.7 | 0.00 | 0.02 | 0.00 | 58 | 1016.7 |
| 20260504150510 | 78 | 96 | 2.6 | 7.8 | 0.00 | 0.02 | 0.00 | 64 | 1016.6 |
| 20260504141013 | 76 | 66 | 3.5 | 10.4 | 0.00 | 0.02 | 0.00 | 66 | 1016.4 |
| 20260504140510 | 76 | 118 | 4.3 | 10.4 | 0.00 | 0.02 | 0.00 | 66 | 1016.4 |
| 20260504130507 | 74 | 122 | 4.3 | 9.6 | 0.00 | 0.03 | 0.00 | 69 | 1016.0 |
| 20260504110510 | 65 | 66 | 4.3 | 8.7 | 0.00 | 0.04 | 0.00 | 83 | 1015.5 |
| 20260504100505 | 65 | 100 | 3.5 | 5.2 | 0.00 | 0.05 | 0.00 | 85 | 1014.9 |
| 20260504081529 | 66 | 84 | 1.7 | 2.6 | 0.00 | 0.07 | 0.00 | 85 | 1014.9 |
| 20260504081009 | 66 | 87 | 0.9 | 3.5 | 0.00 | 0.07 | 0.00 | 85 | 1014.7 |
| 20260504080517 | 66 | 91 | 1.7 | 4.3 | 0.00 | 0.07 | 0.00 | 85 | 1014.7 |